Regional Weather Roundup
Issued by NWS

Home | Current Version | Previous Version | Graphics & Text | Print | Product List | Glossary On
Versions: 1 2 3 4 5 6 7 8 9 10 11 12 13 14 15 16 17 18 19 20 21 22 23 24 25 26 27 28 29 30 31 32 33 34 35 36 37 38 39 40 41 42 43 44 45 46 47 48 49 50
000
ASUS43 KDTX 281610
RWRMI
MICHIGAN HOURLY REGIONAL WEATHER ROUNDUP
NATIONAL WEATHER SERVICE DETROIT/PONTIAC MI
1200 PM EDT SAT MAR 28 2015

NOTE: "FAIR" INDICATES FEW OR NO CLOUDS BELOW 12,000 FEET WITH NO
SIGNIFICANT WEATHER AND/OR OBSTRUCTION TO VISIBILITY.

MIZ047>049-052>055-059>063-066>070-074>076-081>083-281700-
SOUTHEAST LOWER MICHIGAN

CITY           SKY/WX    TMP DP  RH WIND       PRES   REMARKS
ADRIAN         SUNNY     27  10  49 NE10      30.29F
ALMA           SUNNY     28   5  36 NW7       30.32S
ANN ARBOR      SUNNY     27   8  44 N6        30.28S
BAD AXE        MOSUNNY   24  10  53 N9        30.29S
DETROIT CITY   MOSUNNY   29   9  43 N9        30.29S
DETROIT        MOSUNNY   29   9  43 NW9       30.30R
FLINT          MOSUNNY   31  11  43 N8        30.30R
GROSSE ILE     MOSUNNY   27   9  46 N9        30.28S
HILLSDALE      SUNNY     26   6  42 N7        30.27S
HOWELL         MOSUNNY   26   9  47 NW5       30.28S

CITY           SKY/WX    TMP DP  RH WIND       PRES   REMARKS
JACKSON        SUNNY     26   6  42 N8G17     30.29R
LAMBERTVILLE   MOSUNNY   30  10  43 NE5       30.30S
LANSING        SUNNY     27   7  42 N6        30.31S
LAPEER         NOT AVBL
MASON          SUNNY     27   7  43 NW8       30.29S
MONROE         PTSUNNY   27  12  54 NW9       30.28S
MT. CLEMENS    MOSUNNY   26  11  54 N13       30.26S
PONTIAC        PTSUNNY   26  10  50 N10       30.26R
PORT HOPE        N/A     26  11  52 N10       30.29R
PORT HURON     MOSUNNY   23  10  58 N8        30.29S
TRI CITIES     SUNNY     28   7  41 VRB6      30.32R
YPSILANTI      MOSUNNY   31  10  41 N15       30.29S
$$
MIZ043>046-050>051-056>058-064>065-071>073-077>080-281700-
SOUTHWEST LOWER MICHIGAN

CITY           SKY/WX    TMP DP  RH WIND       PRES   REMARKS
BATTLE CREEK   SUNNY     27   5  39 CALM      30.31R
BENTON HARBOR  SUNNY     24  11  57 NW7       30.35R
BIG RAPIDS     SUNNY     27   4  38 CALM      30.29F
COLDWATER      SUNNY     26   5  41 CALM      30.30S
HOLLAND        SUNNY     27   3  35 NW5       30.35R
GRAND RAPIDS   MOSUNNY   28   4  35 VRB3      30.33S
KALAMAZOO      SUNNY     27   4  37 VRB3      30.32S
MARSHALL       SUNNY     27   4  38 N3        30.30R
MUSKEGON       SUNNY     26  -1  31 CALM      30.35S
$$
MIZ016>042-281700-
NORTHERN LOWER MICHIGAN

CITY           SKY/WX    TMP DP  RH WIND       PRES   REMARKS
ALPENA         SUNNY     28   7  41 NE10      30.30F
BEAVER ISLAND  SUNNY     24  10  53 W8        30.33R
BELLAIRE       SUNNY     25   7  47 SW6       30.34S
CADILLAC       SUNNY     26   3  36 CALM      30.26S
CHARLEVOIX     SUNNY     24  10  53 W7        30.36S
FRANKFORT      SUNNY     29   1  29 CALM      30.34S
GAYLORD        SUNNY     22   4  46 NW6       30.25F
GRAYLING       SUNNY     25   3  38 N6        30.28S
HARBOR SPRINGS SUNNY     19   7  60 SW6       30.32S
HOUGHTON LAKE  SUNNY     23   7  50 SW7       30.28F
MANISTEE       SUNNY     25   3  39 W7        30.34F
OSCODA         SUNNY     28   6  39 CALM      30.29S
PELLSTON       SUNNY     25   7  46 N7        30.31F
TRAVERSE CITY  SUNNY     23   6  48 NE6       30.32F
$$
MIZ007>008-015-281700-
EASTERN UPPER MICHIGAN

CITY           SKY/WX    TMP DP  RH WIND       PRES   REMARKS
KINROSS        SUNNY     28   9  43 W9        30.28F
MACKINAC ISLAN SUNNY     18  11  75 W8        30.30F
NEWBERRY       SUNNY     21   4  48 SW9       30.28F
S. S. MARIE    SUNNY     23  11  60 W6        30.29S
$$
MIZ004>006-011>014-085-281700-
CENTRAL UPPER MICHIGAN

CITY           SKY/WX    TMP DP  RH WIND       PRES   REMARKS
MANISTIQUE     SUNNY     22  13  67 S7        30.31F
ESCANABA       SUNNY     25  10  54 SE10      30.32S
MENOMINEE      SUNNY     27  12  54 SE9       30.32F
SAWYER-GWINN   SUNNY     23   3  42 S7        30.24F
$$
MIZ001>003-009>011-084-281700-
WESTERN UPPER MICHIGAN

CITY           SKY/WX    TMP DP  RH WIND       PRES   REMARKS
IRON MOUNTAIN  SUNNY     26   8  46 VRB3      30.24F
HOUGHTON       SUNNY     26   3  37 SE3       30.22S
COPPER HARBOR    N/A     28  10  46 VRB5      30.25S
IRONWOOD       SUNNY     32   9  37 W3        30.19F
$$

ABBREVIATIONS USED IN REMARKS
   TC - TEMPERATURE IN CELSIUS
  WCI - WIND CHILL INDEX
   HX - HEAT INDEX
  VSB - VISIBILITY



USA.gov is the U.S. government's official web portal to all federal, state and local government web resources and services.